Location: Star Corral Observatory
(36.0443°N, 95.7804°W)
Time: 22:07:53
(UTC-06:00)

ARIANE 6 FM1 Upper Stage - Visible Passes

Search period start: 07 December 2025 00:00
Search period end: 17 December 2025 00:00
Orbit: 522 x 612 km, 62.0° (Epoch: 07 December)

Date Brightness Start Highest point End Pass type
(mag) Time Alt. Az. Time Alt. Az. Time Alt. Az.
07 Dec 5.9 18:35:47 10° W 18:38:00 14° WSW 18:40:14 10° SSW visible
11 Dec 4.1 06:53:44 10° S 06:57:36 43° ESE 07:01:25 10° NE visible
12 Dec 3.0 06:53:55 10° SSW 06:57:59 70° ESE 07:01:58 10° NE visible
13 Dec 2.5 06:54:19 10° SW 06:58:23 73° NW 07:02:23 10° NNE visible
14 Dec 5.8 05:18:02 10° SE 05:20:09 14° ESE 05:22:15 10° E visible
14 Dec 2.9 06:54:54 10° SW 06:58:48 45° NW 07:02:40 10° NNE visible
15 Dec 5.1 05:17:16 10° SSE 05:20:25 22° ESE 05:23:32 10° ENE visible
15 Dec 3.4 06:55:41 10° WSW 06:59:17 30° NW 07:02:49 10° NNE visible
16 Dec 4.2 05:16:59 10° S 05:20:42 34° ESE 05:24:21 10° NE visible
16 Dec 3.9 06:56:42 10° W 06:59:47 20° NW 07:02:50 10° N visible
